Torna al catalogo

STARLINK-32228

AttivoComunicazioniVLEO
NORAD 60445·PAYLOAD·🇺🇸 United States

Lanciato Aug 12, 2024 da Cape Canaveral Space Force Station

Loading…

Prossimi Passaggi (prossime 24 ore)

TLE

AggiornatoSource: CelesTrak SupGP

Epoca: Sep 14, 2026, 13:50 UTC

1 60445C 24144W   26257.57687500 -.00039622  00000+0 -11703-2 0  2578
2 60445  53.1589  55.1899 0000938  88.7624 254.0419 15.34419135    16

Traccia STARLINK-32228 in tempo reale con AllMySat

Download on the App Store